sat.trackr.live / text

‹ back to catalog

STARLINK-3870

NORAD 52451 · 2022-049A

PAYLOAD ACTIVE UNKNOWN

§ Identity

Operator
Country
US
Launch date
2022-05-06
Launch site
AFETR
Launch vehicle
Mass (kg)
RCS (m²)

Purposes: comms

External: N2YO · Heavens-Above · Gunter

§ Orbital elements

Epoch: 2026-05-26T00:37:46.900992Z

Period
87.49 min
Inclination
53.2006°
Eccentricity
0.0010518
Mean motion
16.45990611 rev/d
Perigee alt
143.0 km
Apogee alt
156.8 km
Semi-major
6,528.1 km
B*
2.0819e-4
RAAN
51.9162°
Arg perigee
244.9051°
Mean anomaly
115.0909°
Rev number
22,420

§ Raw data

STARLINK-38701 52451U 22049A   26146.02623728  .09852349  12440-4  20819-3 0  99912 52451  53.2006  51.9162 0010518 244.9051 115.0909 16.45990611224206

JSON: /api/v1/satellites/52451 · /tle

For live sub-satellite position, see the globe view (requires WebGL).

§ Visibility from observer

Set your observer location to see the next 7 days of passes ≥ 10°. The values pass through the URL so the page stays shareable.

No JS? Fill the form by hand. The geolocation button needs JavaScript.